Retour au catalogue

CZ-6A LOWER FAIRING HALF

ActifPO
NORAD 65547·DEBRIS·🇨🇳 China
Ce nom de satellite n'a pas encore été confirmé par des sources officielles.

Lancé Sep 6, 2025 depuis Taiyuan Satellite Launch Center

Loading…

Prochains Passages (prochaines 24 heures)

TLE

FraisSource: Space-Track

Époque: Sep 14, 2026, 17:25 UTC

1 65547U 25199D   26257.72635653  .00000143  00000-0  67187-4 0  9993
2 65547  85.9970   3.1559 0001905 117.6697 242.4679 14.12463457 52774

Suivez CZ-6A LOWER FAIRING HALF en temps réel avec AllMySat

Download on the App Store